User: anonymous   Login
Location: Unspecified
(0.0000°N, 0.0000°E)
Time: 13:26:56
(UTC+00:00)
Language:

Tiangong 1 - Orbit

View from above orbital plane
View from above orbital plane
View from above satellite
View from above satellite

Ground track
Ground track

The orbit data is extracted from the following two-line orbital elements,

1 37820U 11053A   17053.10229167  .00027371  00000-0  19511-3 0  9994
2 37820  42.7607 181.8440 0018457 340.8467  20.1503 15.73017999309814
Epoch (UTC): 22 February 2017 02:27:18
Eccentricity: 0.0018457
inclination: 42.7607°
perigee height: 338 km
apogee height: 363 km
right ascension of ascending node: 181.8440°
argument of perigee: 340.8467°
revolutions per day: 15.73017999
mean anomaly at epoch: 20.1503°
orbit number at epoch: 30981

The dashed part of the orbit path shows where the satellite is in the earth's shadow,  

DLR